• Processing (Info)

  • MPEC 2019-A135: 2019 AO6

    The following Minor Planet Electronic Circular may be linked-to from your own Web pages, but must not otherwise be redistributed electronically.

    A form allowing access to any MPEC is at the bottom of this page.


    Read MPEC 2019-A134 Read MPEC 2019-A136


    M.P.E.C. 2019-A135                               Issued 2019 Jan.  9, 15:27 UT
    
         The Minor Planet Electronic Circulars contain information on unusual
             minor planets and routine data on comets.  They are published
        on behalf of Division F of the International Astronomical Union by the
              Minor Planet Center, Smithsonian Astrophysical Observatory,
                              Cambridge, MA 02138, U.S.A.
    
                 Prepared using the Tamkin Foundation Computer Network
    
                                  MPC@CFA.HARVARD.EDU
                URL https://www.minorplanetcenter.net/    ISSN 1523-6714
    
                                       2019 AO6
    
    Observations:
         K19A06O  C2019 01 05.52181209 45 12.386+38 17 36.54         21.8 GVEA135F51
         K19A06O  C2019 01 05.53377109 45 11.621+38 17 57.97         21.3 GVEA135F51
         K19A06O  C2019 01 05.54574309 45 10.877+38 18 19.24         21.2 GVEA135F51
         K19A06O  C2019 01 05.55772309 45 10.138+38 18 40.25         21.2 GVEA135F51
         K19A06O* C2019 01 06.52966 09 44 16.637+38 46 52.00         21.0 wUEA135F51
         K19A06O  C2019 01 06.54183 09 44 15.804+38 47 13.26         21.3 wUEA135F51
         K19A06O  C2019 01 06.55409 09 44 14.982+38 47 33.98         21.1 wUEA135F51
         K19A06O  C2019 01 06.56631 09 44 14.149+38 47 54.98         21.2 wUEA135F51
         K19A06O KC2019 01 06.87843009 43 57.29 +38 56 34.5          21.0 GVEA135L01
         K19A06O KC2019 01 06.88115509 43 57.08 +38 56 39.7          21.1 GVEA135L01
         K19A06O KC2019 01 06.88465809 43 56.88 +38 56 45.8          21.2 GVEA135L01
         K19A06O KC2019 01 09.23859709 41 27.87 +40 01 15.5          21.0 VuEA135H21
         K19A06O KC2019 01 09.24634109 41 27.32 +40 01 28.2          20.8 VuEA135H21
         K19A06O KC2019 01 09.25641009 41 26.57 +40 01 44.9          21.0 VuEA135H21
    
    Observer details:
    F51 Pan-STARRS 1, Haleakala.  Observers J. Bulger, K. Chambers, T. Lowe,
        E. Magnier, A. Schultz, M. Willman.  Measurers S. Chastel, M. Huber,
        Y. Ramanjooloo, R. Wainscoat, R. Weryk, K. Chambers, L. Denneau,
        J. Fairlamb, H. Flewelling, C.-C. Lin, E. Magnier.  1.8-m
        Ritchey-Chretien + CCD.
    H21 Astronomical Research Observatory, Westfield.  Observer R. Holmes.
        Measurers S. Foglia, L. Buzzi, T. Linder, R. Holmes.  0.76-m f/3.0
        astrograph + CCD.
    L01 Visnjan Observatory, Tican.  Observer K. Korlevic.  1.0-m f/2.9 reflector
        + CCD.
    
    Orbital elements:
    2019 AO6                                                 Earth MOID = 0.1382 AU
    Epoch 2019 Apr. 27.0 TT = JDT 2458600.5                 MPC
    M  46.68480              (2000.0)            P               Q
    n   0.25402321     Peri.  322.81110     +0.65304647     -0.70945382
    a   2.4691859      Node    84.75459     +0.74295076     +0.53234037
    e   0.5649495      Incl.   15.43100     +0.14681443     +0.46183223
    P   3.88           H   21.1           G   0.15           U   7
    Residuals in seconds of arc
    190105 F51  0.4+  0.3-    190106 F51  0.3+  0.1+    190106 L01  0.2-  0.0
    190105 F51  0.2+  0.1-    190106 F51  0.3+  0.2-    190109 H21  0.1-  0.3-
    190105 F51  0.2+  0.0     190106 F51  0.1+  0.1-    190109 H21  0.2+  0.1-
    190105 F51  0.4+  0.1-    190106 L01  0.2+  0.4-    190109 H21  0.1+  0.4+
    190106 F51  0.6+  0.2-    190106 L01  0.3-  0.0
    
    Ephemeris:
    2019 AO6                 a,e,i = 2.47, 0.56, 15                  q = 1.0742
    Date    TT    R. A. (2000) Decl.     Delta      r     Elong.  Phase     V
    2018 12 10    09 40 47.2 +22 15 53   0.3866  1.2115   117.2    46.3    21.2
    ...
    2018 12 25    09 50 19.4 +31 54 48   0.4206  1.3010   131.5    34.5    21.2
    ...
    2019 01 02    09 47 52.4 +36 29 18   0.4478  1.3538   139.1    28.4    21.3
    ...
    2019 01 08    09 42 48.0 +39 27 58   0.4735  1.3951   144.2    24.4    21.3
    2019 01 09    09 41 43.2 +39 54 57   0.4783  1.4021   145.0    23.7    21.3
    2019 01 10    09 40 34.7 +40 21 06   0.4832  1.4092   145.7    23.2    21.4
    ...
    2019 01 16    09 32 41.0 +42 38 48   0.5161  1.4519   149.4    20.2    21.5
    ...
    2019 01 24    09 20 27.1 +44 48 57   0.5689  1.5101   151.9    17.9    21.7
    ...
    2019 02 08    08 58 46.5 +46 18 29   0.6965  1.6215   148.5    18.6    22.3
    
    A. U. Tomatic                (C) Copyright 2019 MPC           M.P.E.C. 2019-A135
    

    Read MPEC 2019-A134 Read MPEC 2019-A136


    MPEC number:

    Enter an MPEC number in one of the following forms:

    • 1997-B01 (the full form)
    • J97B01 (the packed version of the full form)
    • B01 (the abbreviated form)